www.pogodaiklimat.ru

Погода и климат >> Архив погоды >> Австралия >> Западная Австралия >> Каррата


ПОГОДА в Каррате

  • Прогноз погоды в Каррате
  • Монитор погоды в Каррате

АРХИВ ПОГОДЫ в Каррате

Время (UTC), дата Ветер
(напр.,м/с)
 
Видим.   Явления Облачность Т
(С)
Тd
(С)
f
(%)
Тe
(С)
Тes
(С)
Комфортность P
(гПа)
Po
(гПа)
Тmin
(С)
Tmax
(С)
R
(мм)
R24
(мм)
S
(см)
07 12.03 С 6 н/о 3/0
[]
+36.5 +21.5 42 +44 +48 опасность
перегрева
1008.8 1008.1
09 12.03 С 6 н/о н/о +34.4 +20.4 44 +41 +41 опасность
перегрева
1008.7 1008.0
10 12.03 С 5 н/о 1/0
[]
+32.5 +22.3 55 +42 +42 опасность
перегрева
1008.9 1008.2
12 12.03 СЗ 4 н/о н/о +31.5 +23.6 63 +43 +43 опасность
перегрева
1010.4 1009.7
13 12.03 СЗ 5 н/о 6/0
[]
+31.0 +24.1 67 +43 +43 опасность
перегрева
1011.2 1010.5 +38.0
15 12.03 З 5 н/о н/о +30.7 +25.3 73 +45 +45 опасность
перегрева
1012.1 1011.4
16 12.03 З 5 н/о 10/0
[]
+30.6 +25.2 73 +44 +44 опасность
перегрева
1012.0 1011.3
18 12.03 З 5 н/о н/о +30.8 +24.4 69 +43 +43 опасность
перегрева
1011.1 1010.4
19 12.03 З 5 н/о 9/0
[]
+30.7 +24.4 69 +43 +43 опасность
перегрева
1011.1 1010.4
21 12.03 З 5 н/о н/о +30.0 +25.5 77 +44 +44 опасность
перегрева
1011.0 1010.3
22 12.03 З 6 н/о н/о +29.9 +25.2 76 +43 +43 опасность
перегрева
1011.6 1010.9
00 13.03 З 5 н/о н/о +31.0 +26.3 76 +47 +47 опасность
перегрева
1012.3 1011.6
01 13.03 З 5 н/о н/о +32.4 +25.7 68 +48 +48 опасность
перегрева
1012.3 1011.6 +29.9
03 13.03 З 5 н/о н/о +35.2 +25.7 58 +50 +50 опасность
перегрева
1011.8 1011.1
04 13.03 СЗ 5 н/о н/о +36.0 +24.3 51 +48 +48 опасность
перегрева
1011.0 1010.3
06 13.03 СЗ 7 н/о н/о +35.8 +23.7 50 +47 +47 опасность
перегрева
1009.7 1009.0
07 13.03 СЗ 7 н/о н/о +34.7 +24.0 54 +46 +46 опасность
перегрева
1008.9 1008.2
09 13.03 З 6 н/о н/о +33.5 +24.4 59 +46 +46 опасность
перегрева
1009.8 1009.1
10 13.03 З 7 н/о н/о +32.4 +25.2 66 +46 +46 опасность
перегрева
1010.5 1009.8
12 13.03 З 5 н/о н/о +31.1 +25.7 73 +46 +46 опасность
перегрева
1011.4 1010.7
13 13.03 ЮЗ 7 н/о 1/0
[]
+31.1 +25.4 72 +45 +45 опасность
перегрева
1012.2 1011.5 +37.7
15 13.03 З 6 н/о н/о +31.3 +24.4 67 +44 +44 опасность
перегрева
1011.9 1011.2
16 13.03 ЮЗ 4 н/о н/о +30.6 +24.3 69 +43 +43 опасность
перегрева
1012.0 1011.3
18 13.03 ЮЗ 4 н/о н/о +30.2 +24.6 72 +43 +43 опасность
перегрева
1011.6 1010.9
19 13.03 ЮЗ 3 н/о н/о +29.6 +23.1 68 +40 +40 очень
душно
1011.2 1010.5
21 13.03 Ю 2 н/о н/о +28.8 +22.1 67 +37 +37 очень
душно
1011.9 1011.2
22 13.03 Ю 2 н/о н/о +28.2 +22.0 69 +36 +36 очень
душно
1012.4 1011.7
00 14.03 Ю 2 н/о н/о +31.5 +20.4 52 +38 +38 очень
душно
1012.8 1012.1
01 14.03 ЮВ 1 н/о н/о +34.1 +20.1 44 +40 +40 очень
душно
1012.7 1012.0 +28.2
03 14.03 С 4 н/о н/о +36.1 +19.9 39 +42 +42 опасность
перегрева
1011.5 1010.8
04 14.03 СЗ 4 н/о 1/0
[]
+37.3 +21.0 39 +44 +58 опасность
перегрева
1010.2 1009.5
06 14.03 СЗ 6 н/о н/о +38.6 +22.2 39 +47 +47 опасность
перегрева
1008.4 1007.7
07 14.03 СЗ 7 н/о н/о +37.8 +23.1 43 +47 +47 опасность
перегрева
1007.8 1007.1
09 14.03 З 8 н/о н/о +35.3 +21.6 45 +43 +43 опасность
перегрева
1007.6 1006.9
10 14.03 З 8 н/о н/о +33.2 +24.9 62 +47 +47 опасность
перегрева
1008.3 1007.6
12 14.03 З 8 н/о н/о +32.0 +24.8 66 +45 +45 опасность
перегрева
1009.5 1008.8
13 14.03 З 7 н/о н/о +31.7 +25.8 71 +47 +47 опасность
перегрева
1009.9 1009.2 +39.4
15 14.03 З 6 н/о н/о +31.7 +24.0 64 +44 +44 опасность
перегрева
1009.7 1009.0
16 14.03 З 6 н/о н/о +31.8 +23.3 61 +43 +43 опасность
перегрева
1009.1 1008.4
18 14.03 Ю 4 н/о н/о +30.5 +21.9 60 +39 +39 очень
душно
1009.0 1008.3
19 14.03 З 2 н/о 1/0
[]
+30.4 +22.6 63 +40 +40 очень
душно
1009.0 1008.3
21 14.03 ЮЗ 4 н/о н/о +30.0 +22.9 66 +40 +40 очень
душно
1008.7 1008.0
22 14.03 З 4 н/о н/о +30.8 +23.2 64 +41 +41 опасность
перегрева
1009.0 1008.3
00 15.03 З 6 н/о н/о +31.7 +25.3 69 +46 +46 опасность
перегрева
1009.9 1009.2
01 15.03 З 4 н/о н/о +33.4 +23.4 56 +44 +44 опасность
перегрева
1010.1 1009.4 +29.9
03 15.03 З 5 н/о н/о +35.9 +22.5 46 +45 +45 опасность
перегрева
1009.4 1008.7
04 15.03 СЗ 5 н/о н/о +36.7 +23.5 47 +47 +47 опасность
перегрева
1008.4 1007.7
06 15.03 СЗ 7 н/о н/о +39.1 +19.4 32 +44 +44 опасность
перегрева
1006.0 1005.4
07 15.03 З 9 н/о н/о +38.3 +23.1 42 +48 +48 опасность
перегрева
1005.6 1005.0
09 15.03 З 8 н/о н/о +36.4 +22.9 46 +46 +46 опасность
перегрева
1005.7 1005.1
10 15.03 З 7 н/о н/о +35.2 +22.5 48 +44 +44 опасность
перегрева
1005.9 1005.3
12 15.03 З 8 н/о н/о +33.3 +24.5 60 +46 +46 опасность
перегрева
1007.7 1007.0
13 15.03 ЮЗ 6 н/о н/о +33.4 +22.8 54 +43 +43 опасность
перегрева
1008.1 1007.4 +39.8
15 15.03 ЮЗ 3 н/о н/о +32.6 +19.8 47 +39 +39 очень
душно
1008.1 1007.4
16 15.03 ЮЗ 5 н/о н/о +32.7 +18.8 44 +38 +38 очень
душно
1007.6 1006.9
18 15.03 З 5 н/о н/о +31.9 +21.4 54 +40 +40 очень
душно
1006.1 1005.5
19 15.03 З 5 н/о н/о +31.5 +21.1 54 +39 +39 очень
душно
1005.7 1005.1
21 15.03 З 4 н/о н/о +30.9 +21.7 58 +39 +39 очень
душно
1006.2 1005.6
22 15.03 З 5 н/о н/о +30.7 +24.6 70 +43 +43 опасность
перегрева
1006.7 1006.1
00 16.03 З 5 н/о н/о +31.1 +24.2 67 +43 +43 опасность
перегрева
1008.1 1007.4
01 16.03 З 2 н/о н/о +34.0 +23.1 53 +44 +44 опасность
перегрева
1008.4 1007.7 +30.1
03 16.03 В 4 н/о н/о +39.3 +16.8 27 +42 +42 опасность
перегрева
1007.3 1006.7
04 16.03 СВ 5 н/о н/о +40.2 +15.1 23 +41 +41 опасность
перегрева
1006.1 1005.5
06 16.03 СВ 8 н/о н/о +39.9 +17.3 27 +43 +43 опасность
перегрева
1004.9 1004.3
07 16.03 С 7 н/о н/о +36.6 +24.8 51 +50 +50 опасность
перегрева
1004.2 1003.6
09 16.03 СЗ 7 н/о н/о +35.5 +22.8 48 +45 +45 опасность
перегрева
1004.0 1003.4
10 16.03 СЗ 6 н/о н/о +33.7 +24.8 60 +47 +47 опасность
перегрева
1005.1 1004.5
12 16.03 З 5 н/о н/о +33.6 +22.1 51 +42 +42 опасность
перегрева
1007.2 1006.6
13 16.03 СЗ 2 н/о 1/0
[]
+33.4 +20.9 48 +41 +41 опасность
перегрева
1008.0 1007.3 +41.6
15 16.03 В 6 н/о н/о +32.5 +22.0 54 +41 +41 опасность
перегрева
1008.9 1008.2
16 16.03 СВ 6 н/о 10/0
[]
+31.6 +26.8 76 +49 +49 опасность
перегрева
1008.3 1007.6
18 16.03 В 2 н/о н/о +30.8 +23.7 66 +42 +42 опасность
перегрева
1007.5 1006.8
19 16.03 С 3 н/о н/о +30.4 +27.4 84 +49 +49 опасность
перегрева
1007.1 1006.5
21 16.03 Ю 1 н/о н/о +28.9 +20.9 62 +36 +36 очень
душно
1007.0 1006.4
22 16.03 В 3 н/о н/о +29.4 +20.5 59 +36 +36 очень
душно
1007.7 1007.0
00 17.03 В 5 н/о н/о +31.7 +23.8 63 +43 +43 опасность
перегрева
1009.1 1008.4
01 17.03 СВ 5 н/о н/о +32.5 +25.6 67 +47 +47 опасность
перегрева
1009.7 1009.0 +28.9
03 17.03 СВ 6 н/о н/о +33.1 +24.8 62 +46 +46 опасность
перегрева
1009.0 1008.3
04 17.03 СВ 7 н/о 1/0
[]
+35.1 +25.6 58 +50 +56 опасность
перегрева
1008.2 1007.5
06 17.03 СВ 8 н/о н/о +34.3 +23.9 55 +46 +46 опасность
перегрева
1006.4 1005.8
07 17.03 СВ 8 н/о н/о +34.9 +23.9 53 +46 +46 опасность
перегрева
1005.8 1005.2
09 17.03 СВ 7 н/о н/о +32.3 +25.6 68 +47 +47 опасность
перегрева
1007.2 1006.6
10 17.03 С 5 н/о н/о +31.4 +24.5 67 +44 +44 опасность
перегрева
1006.5 1005.9
12 17.03 ЮВ 7 н/о н/о +23.5 +23.2 98 +31 +31 очень
душно
1011.3 1010.6
13 17.03 В 4 н/о в посл. час дождь {туман} 8/0
[]
+26.2 +22.7 81 +35 +35 очень
душно
1011.4 1010.7 +36.0
15 17.03 В 4 н/о н/о +26.5 +22.8 80 +35 +35 очень
душно
1010.3 1009.6
16 17.03 ЮВ 2 н/о 1/0
[]
+26.5 +22.3 78 +35 +35 очень
душно
1009.7 1009.0
18 17.03 В 2 н/о н/о +25.6 +22.7 84 +34 +34 очень
душно
1009.6 1008.9
19 17.03 ЮВ 4 н/о н/о +25.6 +22.1 81 +33 +33 очень
душно
1009.8 1009.1
21 17.03 ЮВ 3 н/о н/о +24.9 +23.1 90 +33 +33 очень
душно
1009.4 1008.7
22 17.03 ЮВ 2 н/о н/о +25.1 +22.8 87 +33 +33 очень
душно
1009.5 1008.8
00 18.03 В 4 н/о н/о +28.2 +22.9 73 +38 +38 очень
душно
1010.3 1009.6
01 18.03 СВ 6 н/о н/о +29.7 +22.9 67 +40 +40 очень
душно
1010.5 1009.8 +23.0
03 18.03 СВ 5 н/о н/о +31.0 +24.4 68 +43 +43 опасность
перегрева
1009.5 1008.8
04 18.03 С 4 н/о н/о +32.2 +24.5 64 +45 +45 опасность
перегрева
1008.6 1007.9
06 18.03 С 5 н/о н/о +33.5 +22.6 53 +43 +43 опасность
перегрева
1006.7 1006.1
07 18.03 С 5 н/о н/о +34.2 +24.7 58 +47 +47 опасность
перегрева
1005.9 1005.3
09 18.03 С 6 н/о н/о +32.0 +23.0 59 +42 +42 опасность
перегрева
1005.9 1005.3
10 18.03 С 5 н/о н/о +31.3 +24.7 68 +44 +44 опасность
перегрева
1006.4 1005.8
12 18.03 З 6 н/о н/о +30.8 +25.2 72 +45 +45 опасность
перегрева
1008.5 1007.8
13 18.03 З 6 н/о н/о +30.7 +24.6 70 +43 +43 опасность
перегрева
1009.2 1008.5 +34.9
15 18.03 ЮЗ 6 н/о н/о +30.1 +25.2 75 +44 +44 опасность
перегрева
1008.7 1008.0
16 18.03 З 6 н/о н/о +30.0 +24.9 74 +43 +43 опасность
перегрева
1008.1 1007.4
18 18.03 ЮЗ 6 н/о н/о +29.3 +25.5 80 +43 +43 опасность
перегрева
1007.3 1006.7
19 18.03 ЮЗ 6 н/о н/о +28.8 +25.4 82 +42 +42 опасность
перегрева
1006.9 1006.3
21 18.03 ЮЗ 4 н/о н/о +28.6 +24.8 80 +41 +41 опасность
перегрева
1007.1 1006.5
22 18.03 ЮЗ 3 н/о н/о +28.0 +25.0 84 +40 +40 очень
душно
1007.5 1006.8
00 19.03 ЮЗ 3 н/о н/о +30.2 +24.4 71 +42 +42 опасность
перегрева
1008.3 1007.6
01 19.03 З 3 н/о н/о +32.0 +23.8 62 +43 +43 опасность
перегрева
1008.6 1007.9 +28.1
03 19.03 СЗ 5 н/о н/о +36.1 +20.8 41 +43 +43 опасность
перегрева
1007.8 1007.1
04 19.03 СЗ 5 н/о н/о +36.0 +22.9 47 +46 +46 опасность
перегрева
1006.9 1006.3
06 19.03 СЗ 6 н/о н/о +36.8 +22.2 43 +45 +45 опасность
перегрева
1005.1 1004.5
07 19.03 СЗ 7 н/о н/о +35.5 +23.5 50 +46 +46 опасность
перегрева
1004.6 1004.0

 

Местоположение метеостанции Каррата (Западная Австралия, Австралия): широта -20.72 долгота 116.77 высота над уровнем моря 6 м.

В архиве по умолчанию представлена погода в Каррате за последнюю неделю. Архивные данные за месяц целиком и за предыдущие месяцы, начиная с января 2011 года, Вы можете получить, выбрав интересующий диапазон дат из раскрывающегося списка и нажав кнопку "Ввод!".


*Определитесь, кто Вы:
робот инопланетянин человек

Внимание! Время в таблицах - всемирное. Для получения местного времени необходимо прибавить поправку, которая равна 8 ч.

Смотрите также архив погоды в соседних городах и на ближайших метеорологических станциях:

Погода в Роборне (Западная Австралия, Австралия) (40 км)
Погода в Марди (Западная Австралия, Австралия) (98 км)
Погода на Острове Варанас (Западная Австралия, Австралия) (125 км)
Погода в Барроу-Айленд (Западная Австралия, Австралия) (144 км)
Погода в Порт-Хедленде (Западная Австралия, Австралия) (198 км)
Погода на Острове Тевенард (Западная Австралия, Австралия) (199 км)
Погода в Онслоу (Западная Австралия, Австралия) (201 км)
Погода в Параберду (Западная Австралия, Австралия) (291 км)
Погода в Марбл-баре (Западная Австралия, Австралия) (314 км)
Погода в Лермонте (Западная Австралия, Австралия) (325 км)

Пояснения к столбцам:

Ветер - указаны скорость ветра в м/с - средняя за 10 мин, порывы в срок и между сроками (в фигурных скобках) и направление, откуда дует ветер: С - северный, СВ - северо-восточный, В - восточный, ЮВ - юго-восточный, Ю - южный, ЮЗ - юго-западный, З - западный, СЗ - северо-западный.
Видимость - горизонтальная дальность видимости в метрах или километрах. При видимости от 1 до 10 км при отсутствии осадков обычно наблюдается дымка, при ухудшении видимости до 1 км и менее - туман. В сухую погоду видимость может ухудшаться дымом, пылью или мглою.
Явления - указаны атмосферные явления, наблюдавшиеся в срок или в последний час перед сроком; фигурными скобками обозначены явления, наблюдавшиеся между сроками (за 1-3 часа до срока); квадратными скобками обозначены град или гололедные отложения с указанием их диаметра в мм.
Облачность - указаны через наклонную черту общая и нижняя облачность в баллах и высота нижней границы облаков в метрах; квадратными скобками обозначены формы облаков: Ci - перистые, Cs - перисто-слоистые, Cc - перисто-кучевые, Ac - высококучевые, As - высокослоистые, Sc - слоисто-кучевые, Ns - слоисто-дождевые, Cu - кучевые, Cb - кучево-дождевые. Подробнее классификацию облаков см. в Атласе облаков (PDF).
T - Температура воздуха - температура, измеренная на высоте 2 м над землей.
Td - Температура точки росы - температура, при понижении до которой содержащийся в воздухе водяной пар достигнет насыщения.
f - Относительная влажность воздуха - влажноcть воздуха, измеренная на высоте 2 м над землей.
Te - Эффективная температура - температура, которую ощущает одетый по сезону человек в тени. Характеристика душности погоды. При расчете учитывается влияние влажности воздуха и скорости ветра на теплоощущения человека.
Tes - Эффективная температура на солнце - температура, которую ощущает человек, с поправкой на солнечный нагрев. Характеристика знойности погоды. Зависит от высоты солнца над горизонтом, облачности и скорости ветра. Ночью, в пасмурную погоду, а также при ветре 12 м/с и более поправка равна нулю.
P - Атмосферное давление - приведенное к уровню моря атмосферное давление.
Po - Атмосферное давление - измеренное на уровне метеостанции атмосферное давление.
Tmin - Минимальная температура - минимум температуры воздуха на высоте 2 м над землей.
Tmax - Максимальная температура - максимум температуры воздуха на высоте 2 м над землей.
R - Количество осадков - Количество выпавших осадков за период времени, мм. При наведении курсора мыши на число - период времени, за который выпало указанное количество осадков.
R24 - Количество осадков - Количество выпавших осадков за 24 часа, мм.
S - Снежный покров - Высота снежного покрова, см. При наведении курсора мыши на число - состояние снежного покрова и степень покрытия местности в баллах.